Home > Weather > Choloma > Past weeks

Flag for Honduras Past Weather in Choloma, Honduras — Yesterday and Last 2 Weeks

Now
90 °F

Scattered clouds.


Feels Like: 100 °F
Forecast: N/A
Wind: 12 mph from North

Location: La Mesa San Pedro Sula

Current Time: Jul 30, 2016 at 4:50:31 PM

Latest Report: Jul 30, 2016 at 4:00 PM


Visibility: N/A

Pressure: 29.89 "Hg

Humidity: 63%

Dew Point: 75 °F

Location of CholomaLocation

Past Weather in Choloma — Graph

°F

Choloma Temperature Yesterday

Maximum temperature yesterday: 91 °F (at 11:00 AM)
Minimum temperature yesterday: 75 °F (at 5:00 AM)
Average temperature yesterday: 82 °F

High & Low Weather Summary for the Past Weeks

 TemperatureHumidityPressure
High93 °F (Jul 16, 12:00 PM)100% (Jul 21, 12:00 AM)30.09 "Hg (Jul 21, 12:00 AM)
Low68 °F (Jul 26, 11:00 PM)25% (Jul 23, 5:00 AM)29.80 "Hg (Jul 26, 3:00 PM)
Average82 °F80%29.93 "Hg
* Reported Jul 15 4:00 PM — Jul 30 4:00 PM, Choloma, Weather by CustomWeather, © 2016

Note: Actual official high and low records may vary slightly from our data, if they occured in-between our weather recording intervals... More about our weather records

Advertising

Choloma Weather History for the Previous 24 Hours

Scroll right to see more
 ConditionsComfort  
Time TempWeatherWind HumidityBarometerVisibility
4:00 PM
Sat, Jul 30
90 °FScattered clouds.12 mph63%29.89 "HgN/A
3:00 PM90 °FScattered clouds.21 mph59%29.89 "HgN/A
2:00 PM91 °FScattered clouds.10 mph52%29.92 "HgN/A
1:00 PM91 °FScattered clouds.7 mph52%29.95 "HgN/A
12:00 PM90 °FPartly sunny.9 mph55%29.98 "HgN/A
11:00 AM88 °FPartly sunny.No wind59%29.98 "HgN/A
10:00 AM84 °FPartly sunny.No wind66%29.98 "HgN/A
9:00 AM77 °FPartly sunny.No wind74%29.98 "HgN/A
8:00 AM75 °FBroken clouds.3 mph83%29.98 "HgN/A
7:00 AM73 °FBroken clouds.No wind89%29.98 "HgN/A
6:00 AM72 °FPassing clouds.No wind88%29.92 "HgN/A
4:00 AM73 °FPassing clouds.No wind89%29.92 "HgN/A
3:00 AM73 °FPassing clouds.No wind89%29.89 "HgN/A
2:00 AM75 °FPassing clouds.No wind83%29.95 "HgN/A
1:00 AM75 °FPassing clouds.6 mph83%29.95 "HgN/A
12:00 AM75 °FPassing clouds.6 mph83%29.95 "HgN/A
11:00 PM
Fri, Jul 29
75 °FPassing clouds.6 mph83%29.95 "HgN/A
9:00 PM75 °FLight rain. Partly cloudy.6 mph83%29.95 "HgN/A
7:00 PM79 °FThunderstorms. Partly cloudy.12 mph84%29.89 "Hg4 mi
6:00 PM84 °FBroken clouds.15 mph74%29.86 "HgN/A
5:00 PM84 °FBroken clouds.15 mph74%29.83 "HgN/A
4:00 PM90 °FBroken clouds.17 mph67%29.83 "HgN/A
Weather by CustomWeather, © 2016

See weather overviewHow to use our weather pages